Flag for U.S.A. Weather past 2 weeks in Thousand Oaks, California, U.S.A.

Now
67 °F

Clear.


Feels Like: 67 °F
Forecast: 62 / 89 °F
Wind: No wind

Location: Camarillo Airport

Current Time: Oct 1, 2014 at 9:27:22 PM

Latest Report: Oct 1, 2014 at 8:55 PM


Visibility: 7 mi

Pressure: 29.85 "Hg

Humidity: 85%

Dew point: 62 °F

Location of Thousand OaksLocation

Historic Weather in Thousand Oaks — Graph

°F

Thousand Oaks temperature yesterday

Maximum temperature yesterday: 80 °F (at 12:55 PM)
Minimum temperature yesterday: 57 °F (at 5:55 AM)
Average temperature yesterday: 68 °F

Past Weeks' High & Low Weather Summary

 TemperatureHumidityPressure
High86 °F (Sep 24, 1:55 PM)85% (Oct 1, 7:55 PM)30.03 "Hg (Oct 1, 7:55 PM)
Low56 °F (Oct 1, 5:55 AM)34% (Sep 24, 9:55 AM)29.73 "Hg (Sep 16, 7:55 PM)
Average71 °F64%29.89 "Hg
* Reported Sep 16 7:55 PM — Oct 1 7:55 PM, Thousand Oaks, Weather by CustomWeather, © 2014

Note: Actual official high and low records may vary slightly from our data, if they occured in-between our weather recording intervals... More about our weather records

Advertising

Thousand Oaks weather history for previous 24 hours

 ConditionsComfort  
Time TempWeatherWind HumidityBarometerVisibility
7:55 PM
Oct 1
67 °FClear.No wind85%29.84 "Hg9 mi
6:55 PM69 °FSunny.5 mph81%29.83 "Hg10 mi
5:55 PM73 °FSunny.7 mph69%29.81 "Hg10 mi
4:55 PM76 °FSunny.7 mph54%29.81 "Hg10 mi
3:55 PM77 °FSunny.8 mph58%29.80 "Hg10 mi
2:55 PM77 °FSunny.9 mph60%29.80 "Hg10 mi
1:55 PM75 °FSunny.8 mph64%29.81 "Hg10 mi
12:55 PM75 °FSunny.12 mph64%29.83 "Hg10 mi
11:55 AM76 °FSunny.10 mph60%29.83 "Hg10 mi
10:55 AM75 °FSunny.7 mph58%29.84 "Hg9 mi
9:55 AM71 °FSunny.3 mph57%29.84 "Hg10 mi
8:55 AM65 °FSunny.No wind66%29.84 "Hg10 mi
7:55 AM60 °FSunny.5 mph75%29.83 "Hg10 mi
6:55 AM57 °FClear.No wind81%29.81 "Hg9 mi
5:55 AM56 °FClear.3 mph75%29.80 "Hg10 mi
4:55 AM57 °FClear.No wind81%29.78 "Hg10 mi
3:55 AM59 °FClear.5 mph78%29.77 "Hg10 mi
2:55 AM59 °FClear.3 mph75%29.77 "Hg10 mi
1:55 AM61 °FClear.3 mph78%29.78 "Hg10 mi
12:55 AM61 °FClear.No wind83%29.77 "Hg10 mi
11:55 PM
Sep 30
63 °FClear.No wind84%29.78 "Hg9 mi
10:55 PM64 °FClear.No wind84%29.78 "Hg9 mi
9:55 PM65 °FClear.No wind81%29.78 "Hg9 mi
Weather by CustomWeather, © 2014

See weather overviewHow to use our weather pages